YAMAL 300K

导读 | 星芒AI

YAMAL 300K 是俄罗斯 Gazprom Space Systems 运营的一颗通信卫星,由 EADS Astrium(现为空中客车防务与航天)制造,于 2011 年 11 月 21 日由质子-M 火箭发射。该卫星位于东经 90 度轨道位置,主要用于提供俄罗斯及周边地区的电视广播、数据传输和互联网服务。YAMAL 300K 搭载 C 波段和 Ku 波段转发器,设计寿命为 15 年,是俄罗斯 Yamal 系列卫星的重要组成部分。

基本信息
目录编号:
38978
目录名称:
YAMAL 300K
国际标识:
2012-061B
轨道中心:
EARTH
卫星名称:
YAMAL 300K
卫星全名:
--
卫星状态:
在轨 (已飞行4746 天)
发射日期:
2012-11-02 UTC
国别 :
俄罗斯(独联体) (CIS)
星等 :
--
轨道信息
数据来源 国际轨道数据 AOE轨道数据
星历时间 2025-10-31T23:33:04+0800
5小时前
查看轨道信息
2025-10-30T20:00:00+0800
1天前
查看轨道信息
半长轴 42165.737km 42165.065km
偏心率 0.0000987 0.0000025
轨道倾角 0.016° 0.005°
近地点辐角 44.044° 53.871°
升交点赤经 238.784° 227.974°
平近点角 173.570° 120.183°
近地点 35783.44km 35786.824km
远地点 35791.764km 35787.036km
周期 1436.148分钟 1436.114分钟
每日圈数 1.002682 1.002706
详细信息
使用方式:
暂无
2D轨道图
3D轨道图
轨道高度分析图
轨道倾角分析图
轨道综合分析图
查看轨道综合分析图